Regional Weather Roundup
Issued by NWS

Home | Current Version | Previous Version | Text Only | Print | Product List | Glossary On
Versions: 1 2 3 4 5 6 7 8 9 10 11 12 13 14 15 16 17 18 19 20 21 22 23 24 25 26 27 28 29 30 31 32 33 34 35 36 37 38 39 40 41 42 43 44 45 46 47 48 49 50
000
ASUS43 KLSX 172207
RWRMO

WEATHER SUMMARY FOR MISSOURI
NATIONAL WEATHER SERVICE SPRINGFIELD MO
400 PM CST SAT FEB 17 2018

NOTE: "FAIR" INDICATES FEW OR NO CLOUDS BELOW 12,000 FEET WITH NO
       SIGNIFICANT WEATHER AND/OR OBSTRUCTIONS TO VISIBILITY.
       CURRENT SKY AND/OR WEATHER CONDITIONS ARE NOT AVAILABLE FOR
       CHILLICOTHE AND FARMINGTON.

MOZ001>031-035>038-043-044-053-054-172300-
...NORTHERN AND WESTERN MISSOURI...

CITY           SKY/WX    TMP DP  RH WIND       PRES   REMARKS
KANSAS CTY INT SUNNY     53  19  26 NW10      30.11R
KANSAS C DTWN  SUNNY     54  18  24 NW15G21   30.10R
LEE`S SUMMIT   SUNNY     53  18  25 NW17      30.11R
ST JOSEPH      SUNNY     52  22  30 NW13      30.10R
CHILLICOTHE      N/A     51  21  30 NW15G23   30.10R
KIRKSVILLE     SUNNY     47  24  40 NW15G22   30.06R

$$
MOZ066>068-077>081-088>096-101>105-172300-
...SOUTHWEST MISSOURI...

CITY           SKY/WX    TMP DP  RH WIND       PRES   REMARKS
SPRINGFIELD    MOSUNNY   49  38  65 NW9       30.12R
JOPLIN         SUNNY     52  38  58 W10       30.14R
BRANSON        MOSUNNY   46  39  76 W3        30.13R

$$
MOZ032>034-039>042-045>050-055>058-069>072-172300-
...CENTRAL MISSOURI...

CITY           SKY/WX    TMP DP  RH WIND       PRES   REMARKS
COLUMBIA       SUNNY     49  33  54 W20G30    30.08R
JEFFERSON CITY MOSUNNY   50  36  58 NW14G24   30.09R
ROLLA          MOSUNNY   45  37  73 W16G24    30.09R
SEDALIA        SUNNY     53  31  42 W18G26    30.11R
WHITEMAN AFB   SUNNY     54  23  30 NW15G24   30.06R
WARRENSBURG    SUNNY     52  21  30 NW12G22   30.11R
OSAGE BEACH    SUNNY     49  37  63 VRB6      30.12R

$$
MOZ051-052-059>065-172300-
...EAST CENTRAL MISSOURI...

CITY           SKY/WX    TMP DP  RH WIND       PRES   REMARKS
ST LOUIS INTL  CLOUDY    41  38  89 W15       30.07R
SPIRIT OF STL  CLOUDY    43  39  86 W14G25    30.07R
ST CHARLES     CLOUDY    41  37  86 W17       30.06R

$$
MOZ072>076-082>087-097>100-106>115-172300-
...SOUTH CENTRAL AND SOUTHEAST MISSOURI...

CITY           SKY/WX    TMP DP  RH WIND       PRES   REMARKS
CAPE GIRARDEAU CLOUDY    42  39  89 W13       30.11R
FARMINGTON     CLOUDY    44  38  79 W12G23    30.08R
POPLAR BLUFF   CLOUDY    44  41  89 W6        30.11R
WEST PLAINS    CLOUDY    44  40  85 W7        30.11R

$$



USA.gov is the U.S. government's official web portal to all federal, state and local government web resources and services.